When you browse on this site, cookies collect data to enhance your experience and personalize the content and advertising you see.
Visit our Privacy Policy to learn more. By continuing to use the site, you agree to this use of cookies and data.
  • Em Portugal
  • Lista de países
  • Para 7 dias
  • Temperatura da água
  • Mapa do tempo
  • Widgets de tempo
  • user-avatar
    Iniciar Sessão

    Previsão horária em Victória

    Hoje, 20 Novembro, Quarta-feira

    Tempo Temperatura Precipitação Vento Pressão Humidade
    00:00 +11°C° 0 mm 3 m/s 748 mmHg 84%
    01:00 +11°C° 0 mm 3 m/s 748 mmHg 88%
    02:00 +10°C° 0 mm 2 m/s 748 mmHg 87%
    03:00 +10°C° 0 mm 2 m/s 748 mmHg 87%
    04:00 +10°C° 0 mm 2 m/s 747 mmHg 85%
    05:00 +13°C° 0 mm 2 m/s 748 mmHg 76%
    06:00 +15°C° 0 mm 2 m/s 748 mmHg 66%
    07:00 +18°C° 0 mm 2 m/s 748 mmHg 57%
    08:00 +21°C° 0 mm 2 m/s 748 mmHg 47%
    09:00 +25°C° 0 mm 3 m/s 748 mmHg 36%
    10:00 +28°C° 0 mm 4 m/s 747 mmHg 26%
    11:00 +30°C° 0 mm 3 m/s 747 mmHg 23%
    12:00 +33°C° 0 mm 3 m/s 747 mmHg 20%
    13:00 +34°C° 0 mm 2 m/s 747 mmHg 16%
    14:00 +35°C° 0 mm 2 m/s 747 mmHg 16%
    15:00 +36°C° 0 mm 2 m/s 746 mmHg 15%
    16:00 +36°C° 0 mm 2 m/s 745 mmHg 15%
    17:00 +34°C° 0 mm 3 m/s 745 mmHg 19%
    18:00 +30°C° 0 mm 3 m/s 745 mmHg 22%
    19:00 +28°C° 0 mm 4 m/s 745 mmHg 26%
    20:00 +27°C° 0 mm 5 m/s 745 mmHg 27%
    21:00 +26°C° 0 mm 5 m/s 745 mmHg 28%
    22:00 +24°C° 0 mm 6 m/s 745 mmHg 28%
    23:00 +24°C° 0 mm 6 m/s 745 mmHg 30%

    Amanhã, 21 Novembro, Quinta-feira

    Tempo Temperatura Precipitação Vento Pressão Humidade
    00:00 +23°C° 0 mm 6 m/s 745 mmHg 31%
    01:00 +23°C° 0 mm 6 m/s 745 mmHg 32%
    02:00 +22°C° 0 mm 6 m/s 744 mmHg 34%
    03:00 +22°C° 0 mm 7 m/s 744 mmHg 36%
    04:00 +22°C° 0 mm 7 m/s 744 mmHg 37%
    05:00 +22°C° 0 mm 8 m/s 744 mmHg 38%
    06:00 +23°C° 0 mm 8 m/s 744 mmHg 40%
    07:00 +24°C° 0 mm 8 m/s 744 mmHg 41%
    08:00 +29°C° 0 mm 9 m/s 744 mmHg 35%
    09:00 +33°C° 0 mm 9 m/s 744 mmHg 29%
    10:00 +37°C° 0 mm 9 m/s 743 mmHg 22%
    11:00 +40°C° 0 mm 10 m/s 742 mmHg 19%
    12:00 +43°C° 0 mm 11 m/s 741 mmHg 15%
    13:00 +46°C° 0 mm 12 m/s 741 mmHg 11%
    14:00 +46°C° 0 mm 12 m/s 740 mmHg 11%
    15:00 +46°C° 0 mm 12 m/s 739 mmHg 10%
    16:00 +46°C° 0 mm 11 m/s 739 mmHg 9%
    17:00 +39°C° 0 mm 10 m/s 740 mmHg 20%
    18:00 +33°C° 0 mm 9 m/s 741 mmHg 31%
    19:00 +28°C° 0 mm 8 m/s 742 mmHg 42%
    20:00 +23°C° 0.1 mm 8 m/s 743 mmHg 53%
    21:00 +20°C° 0.1 mm 7 m/s 744 mmHg 63%
    22:00 +15°C° 0.1 mm 7 m/s 745 mmHg 74%
    23:00 +15°C° 0 mm 7 m/s 745 mmHg 75%

    Depois de amanhã, 22 Novembro, Sexta-feira

    Tempo Temperatura Precipitação Vento Pressão Humidade
    00:00 +14°C° 0 mm 7 m/s 745 mmHg 77%
    01:00 +12°C° 0 mm 7 m/s 746 mmHg 78%
    02:00 +11°C° 0 mm 6 m/s 746 mmHg 79%
    03:00 +10°C° 0 mm 6 m/s 746 mmHg 80%
    04:00 +9°C° 0 mm 5 m/s 747 mmHg 81%
    05:00 +10°C° 0 mm 5 m/s 747 mmHg 75%
    06:00 +12°C° 0 mm 5 m/s 748 mmHg 70%
    07:00 +13°C° 0 mm 5 m/s 748 mmHg 64%
    08:00 +16°C° 0 mm 5 m/s 748 mmHg 56%
    09:00 +20°C° 0 mm 5 m/s 748 mmHg 47%
    10:00 +23°C° 0 mm 5 m/s 748 mmHg 38%
    11:00 +25°C° 0 mm 5 m/s 748 mmHg 32%
    12:00 +27°C° 0 mm 5 m/s 748 mmHg 26%
    13:00 +29°C° 0 mm 4 m/s 747 mmHg 20%
    14:00 +29°C° 0 mm 5 m/s 747 mmHg 20%
    15:00 +28°C° 0 mm 5 m/s 747 mmHg 21%
    16:00 +28°C° 0 mm 5 m/s 747 mmHg 21%
    17:00 +26°C° 0 mm 5 m/s 747 mmHg 26%
    18:00 +22°C° 0 mm 5 m/s 747 mmHg 31%
    19:00 +20°C° 0 mm 5 m/s 747 mmHg 35%
    20:00 +17°C° 0 mm 5 m/s 748 mmHg 40%
    21:00 +15°C° 0 mm 5 m/s 748 mmHg 44%
    22:00 +14°C° 0 mm 5 m/s 749 mmHg 49%
    23:00 +13°C° 0 mm 4 m/s 749 mmHg 53%

    23 Novembro, Sábado

    Tempo Temperatura Precipitação Vento Pressão Humidade
    00:00 +12°C° 0 mm 4 m/s 749 mmHg 58%
    01:00 +11°C° 0 mm 4 m/s 749 mmHg 62%
    02:00 +10°C° 0 mm 3 m/s 749 mmHg 66%
    03:00 +9°C° 0 mm 3 m/s 749 mmHg 69%
    04:00 +9°C° 0 mm 2 m/s 749 mmHg 73%
    05:00 +10°C° 0 mm 2 m/s 749 mmHg 66%
    06:00 +13°C° 0 mm 2 m/s 750 mmHg 58%
    07:00 +15°C° 0 mm 2 m/s 750 mmHg 51%
    08:00 +18°C° 0 mm 3 m/s 750 mmHg 44%
    09:00 +20°C° 0 mm 4 m/s 750 mmHg 37%
    10:00 +23°C° 0 mm 4 m/s 750 mmHg 30%
    11:00 +25°C° 0 mm 4 m/s 750 mmHg 28%
    12:00 +27°C° 0 mm 5 m/s 749 mmHg 25%
    13:00 +28°C° 0 mm 5 m/s 749 mmHg 22%
    14:00 +28°C° 0 mm 5 m/s 749 mmHg 22%
    15:00 +28°C° 0 mm 5 m/s 749 mmHg 21%
    16:00 +29°C° 0 mm 6 m/s 748 mmHg 21%
    17:00 +27°C° 0 mm 6 m/s 749 mmHg 27%
    18:00 +25°C° 0 mm 5 m/s 749 mmHg 33%
    19:00 +22°C° 0 mm 5 m/s 750 mmHg 39%
    20:00 +20°C° 0 mm 5 m/s 750 mmHg 49%
    21:00 +16°C° 0 mm 5 m/s 751 mmHg 59%
    22:00 +14°C° 0 mm 5 m/s 751 mmHg 68%
    23:00 +14°C° 0 mm 5 m/s 751 mmHg 71%

    24 Novembro, Domingo

    Tempo Temperatura Precipitação Vento Pressão Humidade
    00:00 +13°C° 0 mm 4 m/s 751 mmHg 74%
    01:00 +12°C° 0 mm 4 m/s 751 mmHg 77%
    02:00 +11°C° 0 mm 3 m/s 751 mmHg 80%
    03:00 +10°C° 0 mm 3 m/s 751 mmHg 82%
    04:00 +10°C° 0 mm 2 m/s 751 mmHg 85%
    05:00 +12°C° 0 mm 2 m/s 751 mmHg 77%
    06:00 +14°C° 0 mm 2 m/s 751 mmHg 70%
    07:00 +16°C° 0 mm 2 m/s 752 mmHg 62%
    08:00 +19°C° 0 mm 2 m/s 751 mmHg 50%
    09:00 +23°C° 0 mm 2 m/s 751 mmHg 39%
    10:00 +26°C° 0 mm 2 m/s 751 mmHg 28%
    11:00 +27°C° 0 mm 2 m/s 750 mmHg 23%
    12:00 +29°C° 0 mm 3 m/s 749 mmHg 18%
    13:00 +30°C° 0 mm 3 m/s 749 mmHg 13%
    14:00 +30°C° 0 mm 3 m/s 748 mmHg 12%
    15:00 +31°C° 0 mm 3 m/s 748 mmHg 11%
    16:00 +32°C° 0 mm 4 m/s 747 mmHg 10%
    17:00 +29°C° 0 mm 3 m/s 747 mmHg 13%
    18:00 +26°C° 0 mm 2 m/s 748 mmHg 16%
    19:00 +24°C° 0 mm 2 m/s 748 mmHg 19%
    20:00 +23°C° 0 mm 2 m/s 748 mmHg 22%
    21:00 +20°C° 0 mm 2 m/s 748 mmHg 25%
    22:00 +18°C° 0 mm 2 m/s 748 mmHg 27%
    23:00 +18°C° 0 mm 2 m/s 748 mmHg 29%

    25 Novembro, Segunda-feira

    Tempo Temperatura Precipitação Vento Pressão Humidade
    00:00 +17°C° 0 mm 2 m/s 747 mmHg 32%
    01:00 +16°C° 0 mm 1 m/s 747 mmHg 34%
    02:00 +16°C° 0 mm 2 m/s 747 mmHg 35%
    03:00 +15°C° 0 mm 2 m/s 747 mmHg 36%
    04:00 +14°C° 0 mm 2 m/s 746 mmHg 36%
    05:00 +16°C° 0 mm 2 m/s 746 mmHg 34%
    06:00 +18°C° 0 mm 3 m/s 746 mmHg 31%
    07:00 +20°C° 0 mm 4 m/s 746 mmHg 28%
    08:00 +25°C° 0 mm 4 m/s 746 mmHg 24%
    09:00 +28°C° 0 mm 5 m/s 746 mmHg 19%
    10:00 +33°C° 0 mm 5 m/s 746 mmHg 15%
    11:00 +34°C° 0 mm 5 m/s 745 mmHg 13%
    12:00 +36°C° 0 mm 6 m/s 744 mmHg 12%
    13:00 +38°C° 0 mm 6 m/s 743 mmHg 10%
    14:00 +38°C° 0 mm 6 m/s 742 mmHg 11%
    15:00 +38°C° 0 mm 6 m/s 741 mmHg 11%
    16:00 +38°C° 0 mm 7 m/s 740 mmHg 11%
    17:00 +35°C° 0 mm 6 m/s 740 mmHg 12%
    18:00 +33°C° 0 mm 5 m/s 739 mmHg 13%
    19:00 +32°C° 0 mm 4 m/s 738 mmHg 14%
    20:00 +29°C° 0 mm 4 m/s 738 mmHg 15%
    21:00 +28°C° 0 mm 5 m/s 739 mmHg 16%
    22:00 +26°C° 0 mm 5 m/s 739 mmHg 16%
    23:00 +25°C° 0 mm 5 m/s 739 mmHg 28%
    Mostrar mais